Weather Service Report


744 
ASUS43 KBIS 252120
RWRBIS

NWR BROADCAST TEXT
NATIONAL WEATHER SERVICE BISMARCK ND
400 PM CDT MON MAY 25 2015

NOTE: "FAIR" INDICATES FEW OR NO CLOUDS BELOW 12,000 FEET WITH NO
SIGNIFICANT WEATHER AND/OR OBSTRUCTIONS TO VISIBILITY.

  
CITY           SKY/WX    TMP DP  RH WIND       PRES   REMARKS
WILLISTON      PTSUNNY   75  42  30 W3        29.84F                  
MINOT          CLOUDY    75  42  30 NW7       29.81S                  
MINOT AFB      MOSUNNY   80  43  26 S6        29.80S                  
BISMARCK       PTSUNNY   68  55  63 W10       29.85S                  
DICKINSON      CLOUDY    66  49  54 SE9       29.88S                  
GARRISON         N/A     72  47  40 SW9       29.83S                  
HETTINGER ARPT CLOUDY    61  53  75 E10       29.90S                  
JAMESTOWN      CLOUDY    70  50  49 SE6       29.78R                  
BEACH          FAIR      63  54  72 SE14      29.92S                  
CARRINGTON     FAIR      75  39  27 E10G23    29.78S                  
CROSBY         FAIR      77  36  22 SE9       29.84S                  
HARVEY         FAIR      79  36  21 E9G18     29.78F                  
HAZEN          FAIR      72  46  40 NW5       29.85F                  
LINTON         LGT RAIN  63  59  88 N14       29.86R                  
MANDAN         FAIR      66  55  68 SW7       29.86S                  
OAKES            N/A     64  55  72 NE14G21   29.81S                  
STANLEY        FAIR      75  43  31 SE9       29.85S                  
TIOGA          CLOUDY    73  41  31 SW3       29.87F                  
WATFORD CITY   FAIR      72  46  40 SW6       29.84F                  
$$
  
CITY           SKY/WX    TMP DP  RH WIND       PRES   REMARKS
GRAND FORKS    CLOUDY    74  50  42 SE8       29.75S                  
GRAND FORKS AF CLOUDY    75  48  37 SE10      29.75F                  
DEVILS LAKE    MOSUNNY   79  37  22 E14       29.76F                  
FARGO          CLOUDY    66  53  63 N10       29.78R                  
CANDO          MOCLDY    81  36  19 NE3       29.78S                  
CAVALIER       FAIR      81  37  21 NE9       29.75S                  
GRAFTON        FAIR      79  46  31 NE8G18    29.75S                  
LANGDON        FAIR      79  41  25 N12       29.78S                  
ROLLA            N/A     77  32  19 E5        29.80F                  
WALHALLA         N/A     81  39  22 NE8       29.75S                  
$$
  
CITY           SKY/WX    TMP DP  RH WIND       PRES   REMARKS
ABERDEEN       PTSUNNY   68  52  56 E21G28    29.81R                  
MOBRIDGE       CLOUDY    65  56  72 E13       29.83R                  
BUFFALO          N/A     58  54  86 NE10      29.84R                  
RAPID CITY     HVY RAIN  55  53  93 N8        29.86R FOG              
GLASGOW        SUNNY     77  37  23 E13       29.83F                  
SIDNEY         CLOUDY    72  48  43 S6G17     29.87S                  
WOLF POINT     PTSUNNY   72  48  42 SE10G21   29.86R                  
GLENDIVE       CLOUDY    66  48  52 SE9       29.91S                  
MILES CITY     CLOUDY    66  51  58 E12       29.89R                  
BAKER          CLOUDY    61  52  72 E14       29.92R                  
$$
  
CITY           SKY/WX    TMP DP  RH WIND       PRES   REMARKS
BILLINGS       MOSUNNY   67  43  41 CALM      29.90F                  
GREAT FALLS    SUNNY     70  41  34 VRB3      29.86F                  
REGINA         PTSUNNY   77  41  27 SW12      29.84S                  
ESTEVAN        CLOUDY    75  39  27 S5        29.83S                  
$$



745 
ASUS43 KBIS 252120
RWRND 

NORTH DAKOTA REGIONAL WEATHER ROUNDUP
NATIONAL WEATHER SERVICE BISMARCK ND
400 PM CDT MON MAY 25 2015

NOTE: "FAIR" INDICATES FEW OR NO CLOUDS BELOW 12,000 FEET WITH NO
SIGNIFICANT WEATHER AND/OR OBSTRUCTIONS TO VISIBILITY.


NDZ001>003-009>011-017-252200-
NORTHWEST NORTH DAKOTA
  
CITY           SKY/WX    TMP DP  RH WIND       PRES   REMARKS
WILLISTON      PTSUNNY   75  42  30 W3        29.84F                  
MINOT          CLOUDY    75  42  30 NW7       29.81S                  
MINOT AFB      MOSUNNY   80  43  26 S6        29.80S                  
$$
 
NDZ018>021-031>035-040>046-252200-
SOUTHWEST NORTH DAKOTA
  
CITY           SKY/WX    TMP DP  RH WIND       PRES   REMARKS
BISMARCK       PTSUNNY   68  55  63 W10       29.85S                  
DICKINSON      CLOUDY    66  49  54 SE9       29.88S                  
GARRISON         N/A     72  47  40 SW9       29.83S                  
HETTINGER ARPT CLOUDY    61  53  75 E10       29.90S                  
$$
 
NDZ004>008-012>016-024-026-027-054-252200-
NORTHEAST NORTH DAKOTA
  
CITY           SKY/WX    TMP DP  RH WIND       PRES   REMARKS
GRAND FORKS    CLOUDY    74  50  42 SE8       29.75S                  
GRND FRKS AFB  PTSUNNY   75  48  37 SE10      29.75F                  
DEVILS LAKE    MOSUNNY   79  37  22 E14       29.76F                  
$$
 
NDZ022-023-025-028>030-036>039-047>053-252200-
SOUTHEAST NORTH DAKOTA
  
CITY           SKY/WX    TMP DP  RH WIND       PRES   REMARKS
FARGO          CLOUDY    66  53  63 N10       29.78R                  
JAMESTOWN      CLOUDY    70  50  49 SE6       29.78R                  
$$ 


Return to Home page


Western Regional Climate Center, wrcc@dri.edu